Back to catalog

TITAN 3C TRANSTAGE DEB

AliveLEO
NORAD 1829·DEBRIS·🇺🇸 United States

Launched Oct 15, 1965 from Cape Canaveral Space Force Station

Loading…

Next Passes (next 24 hours)

TLE

FreshSource: Space-Track

Epoch: Sep 14, 2026, 14:23 UTC

1 01829U 65082DU  26257.59961098  .00001698  00000-0  16801-3 0  9993
2 01829  32.2879  98.0735 0023485 199.7313 160.2435 14.89806751233862

Track TITAN 3C TRANSTAGE DEB in real time with AllMySat

Download on the App Store